Location: Mount Wilson Observatory
(34.2257°N, 118.0571°W)
Time: 23:58:53
(UTC-07:00)

ATLAS 3B CENTAUR R/B - Visible Passes

Search period start: 23 June 2017 00:00
Search period end: 03 July 2017 00:00
Orbit: 223 x 6048 km, 28.1° (Epoch: 23 June)

Date Brightness Start Highest point End Pass type
(mag) Time Alt. Az. Time Alt. Az. Time Alt. Az.
23 Jun 6.0 01:22:28 10° W 01:54:05 34° SW 01:56:14 34° SW visible
23 Jun 6.4 21:20:27 10° W 21:55:55 73° SSW 22:26:13 19° ESE visible
24 Jun 5.8 00:16:01 10° W 00:52:34 45° SW 00:59:58 41° SSW visible
24 Jun 6.4 20:19:28 10° W 20:50:03 76° S 21:28:56 10° ESE visible
24 Jun 5.9 23:11:25 10° W 23:49:27 56° SSW 00:03:36 40° SSE visible
25 Jun 6.4 02:17:18 10° W 02:37:20 20° WSW 02:37:20 20° WSW visible
25 Jun 6.1 22:08:18 10° W 22:44:50 64° SSW 23:07:08 32° SE visible
26 Jun 6.2 01:07:22 10° W 01:38:20 31° SW 01:40:51 31° SW visible
26 Jun 6.4 21:06:21 10° W 21:39:07 70° SSW 22:10:32 20° ESE visible
27 Jun 6.1 00:00:37 10° W 00:35:55 42° SW 00:44:15 38° SSW visible
27 Jun 6.4 20:05:21 10° W 20:33:05 75° S 21:13:20 10° ESE visible
27 Jun 6.1 22:56:00 10° W 23:32:02 52° SW 23:47:32 38° SSE visible
28 Jun 6.6 02:02:18 10° W 02:21:13 18° WSW 02:21:13 18° WSW visible
28 Jun 6.2 21:52:56 10° W 22:26:49 61° SSW 22:50:42 30° SE visible
29 Jun 6.4 00:51:10 10° W 01:20:55 28° SW 01:24:23 28° SW visible
29 Jun 6.4 20:51:00 10° W 21:20:48 67° SSW 21:53:47 20° SE visible
29 Jun 6.3 23:44:06 10° W 00:17:35 39° SW 00:27:27 34° SSW visible
30 Jun 6.3 19:49:57 10° W 20:14:45 72° SSW 20:55:44 10° ESE visible
30 Jun 6.2 22:39:25 10° W 23:12:57 48° SW 23:30:24 34° S visible
01 Jul 6.8 01:46:33 10° W 02:04:03 16° SW 02:04:03 16° SW visible
01 Jul 6.3 21:36:22 10° W 22:07:16 57° SSW 22:33:14 27° SSE visible
02 Jul 6.6 00:33:59 10° W 01:01:55 26° SW 01:06:53 25° SW visible
02 Jul 6.4 20:34:25 10° W 21:01:06 64° SSW 21:35:59 17° SE visible
